Saguache, CO

3:54 AM MST on February 07, 2016 (GMT -0700)
Saguache

Weather History for K04V - March, 2014

Change the Weather History Date:

Friday, March 28, 2014

  Actual Average (KALS) Record (KALS)
Temperature  
Mean Temperature 35 °F 37 °F  
Max Temperature 46 °F 54 °F 69 °F (2012)
Min Temperature 24 °F 20 °F -5 °F (1984)
Degree Days  
Heating Degree Days 30 28  
Month to date heating degree days 893  
Since 1 July heating degree days 7222  
Cooling Degree Days 0 0  
Month to date cooling degree days 0  
Year to date cooling degree days 0  
Moisture  
Dew Point 11 °F    
Average Humidity 42    
Maximum Humidity 86    
Minimum Humidity 17    
Precipitation  
Precipitation 0.00 in 0.02 in 0.26 in (1995)
Month to date precipitation 0.47  
Year to date precipitation 0.99  
Snow  
Snow 0.00 in 0.10 in 2.40 in (1972)
Month to date snowfall 4.4  
Since 1 July snowfall 22.5  
Snow Depth -    
Sea Level Pressure  
Sea Level Pressure 30.09 in    
Wind  
Wind Speed 13 mph (NNW)    
Max Wind Speed 33 mph    
Max Gust Speed 44 mph    
Visibility 10 miles    
Events Snow    
T = Trace of Precipitation, MM = Missing Value Source: NWS Daily Summary

Daily Weather History Graph

Daily Weather History Graph

Search for Another Location

Airport or City:

Trip Planner

Search our weather history database for the weather conditions in past years. The results will help you decide how hot, cold, wet, or windy it might be!

Date:

Astronomy

Mar. 28, 2014 Rise Set
Actual Time 6:55 AM MDT 7:24 PM MDT
Civil Twilight 6:29 AM MDT 7:50 PM MDT
Nautical Twilight 5:58 AM MDT 8:21 PM MDT
Astronomical Twilight 5:26 AM MDT 8:53 PM MDT
Moon 5:26 AM MDT (3/28) 5:25 PM MDT (3/28)
Length of Visible Light 13h 21m
Length of Day
12h 28m
Waning Crescent, 6% of the Moon is Illuminated
Mar 28
Waning Crescent
Mar 30
New
Apr 7
First Quarter
Apr 15
Full
Apr 22
Last Quarter

Hourly Weather History & Observations

Time (MDT) Temp. Windchill Dew Point Humidity Pressure Visibility Wind Dir Wind Speed Gust Speed Precip Events Conditions
12:15 AM 30.2 °F 22.6 °F 19.4 °F 64% 29.94 in 10.0 mi West 8.1 mph - N/A   Clear
12:35 AM 28.4 °F 20.4 °F 19.4 °F 69% 29.94 in 10.0 mi WNW 8.1 mph - N/A   Scattered Clouds
12:54 AM 26.6 °F 20.0 °F 17.6 °F 69% 29.94 in 10.0 mi NNW 5.8 mph - N/A   Scattered Clouds
1:15 AM 26.6 °F - 19.4 °F 74% 29.94 in 10.0 mi Calm Calm - N/A   Clear
1:35 AM 28.4 °F - 19.4 °F 69% 29.94 in 10.0 mi Calm Calm - N/A   Clear
1:55 AM 26.6 °F 19.1 °F 19.4 °F 74% 29.94 in 10.0 mi NW 6.9 mph - N/A   Clear
2:15 AM 24.8 °F 15.3 °F 17.6 °F 74% 29.94 in 10.0 mi NW 9.2 mph - N/A   Clear
2:35 AM 28.4 °F 19.1 °F 21.2 °F 74% 29.96 in 10.0 mi NNW 10.4 mph - N/A   Mostly Cloudy
2:55 AM 28.4 °F 20.4 °F 24.8 °F 86% 29.95 in 10.0 mi NW 8.1 mph - N/A   Mostly Cloudy
3:15 AM 28.4 °F 19.1 °F 23.0 °F 80% 29.93 in 10.0 mi NNW 10.4 mph - N/A   Mostly Cloudy
3:35 AM 28.4 °F 18.5 °F 21.2 °F 74% 29.93 in 10.0 mi NW 11.5 mph - N/A   Mostly Cloudy
3:55 AM 30.2 °F 21.9 °F 24.8 °F 80% 29.94 in 10.0 mi WNW 9.2 mph - N/A Snow Light Snow
4:02 AM 30.2 °F 20.2 °F 23.0 °F 75% 29.94 in 10.0 mi NW 12.7 mph - N/A   Mostly Cloudy
4:55 AM 28.4 °F 17.0 °F 21.2 °F 74% 29.95 in 10.0 mi NW 15.0 mph - N/A   Unknown
5:15 AM 28.4 °F 18.0 °F 19.4 °F 69% 29.97 in 10.0 mi NNW 12.7 mph - N/A   Clear
5:35 AM 28.4 °F 17.5 °F 19.4 °F 69% 29.97 in 10.0 mi NW 13.8 mph - N/A   Clear
5:55 AM 28.4 °F 18.0 °F 19.4 °F 69% 29.97 in 10.0 mi NW 12.7 mph - N/A   Clear
6:15 AM 28.4 °F 17.5 °F 17.6 °F 64% 29.98 in 10.0 mi NNW 13.8 mph - N/A   Clear
6:35 AM 28.4 °F 17.0 °F 17.6 °F 64% 29.98 in 10.0 mi NNW 15.0 mph - N/A   Clear
6:55 AM 28.4 °F 18.0 °F 17.6 °F 64% 30.00 in 10.0 mi NNW 12.7 mph 20.7 mph N/A   Clear
7:15 AM 28.4 °F 19.1 °F 15.8 °F 59% 30.01 in 10.0 mi NNW 10.4 mph - N/A   Clear
7:35 AM 30.2 °F 20.8 °F 15.8 °F 55% 30.03 in 10.0 mi North 11.5 mph - N/A   Clear
7:55 AM 32.0 °F 23.0 °F 15.8 °F 51% 30.03 in 10.0 mi NNW 11.5 mph - N/A   Clear
8:14 AM 32.0 °F 22.5 °F 15.8 °F 51% 30.04 in 10.0 mi North 12.7 mph 16.1 mph N/A   Clear
8:35 AM 33.8 °F 24.3 °F 14.0 °F 44% 30.05 in 10.0 mi NNW 13.8 mph - N/A   Clear
8:55 AM 33.8 °F 23.2 °F 14.0 °F 44% 30.06 in 10.0 mi NNW 17.3 mph 24.2 mph N/A   Clear
9:15 AM 35.6 °F 24.2 °F 12.2 °F 38% 30.06 in 10.0 mi NW 21.9 mph 31.1 mph N/A   Clear
9:35 AM 35.6 °F 24.8 °F 12.2 °F 38% 30.07 in 10.0 mi NW 19.6 mph 28.8 mph N/A   Scattered Clouds
9:55 AM 39.2 °F 29.3 °F 12.2 °F 33% 30.08 in 10.0 mi NW 20.7 mph 26.5 mph N/A   Scattered Clouds
10:15 AM 39.2 °F 29.8 °F 12.2 °F 33% 30.09 in 10.0 mi NNW 18.4 mph 26.5 mph N/A   Scattered Clouds
10:35 AM 39.2 °F 28.7 °F 10.4 °F 31% 30.08 in 10.0 mi NW 23.0 mph 32.2 mph N/A   Scattered Clouds
10:55 AM 39.2 °F 27.6 °F 10.4 °F 31% 30.09 in 10.0 mi NW 28.8 mph 38.0 mph N/A   Scattered Clouds
11:15 AM 41.0 °F 30.2 °F 8.6 °F 26% 30.09 in 10.0 mi NNW 27.6 mph 38.0 mph N/A   Clear
11:35 AM 41.0 °F 30.0 °F 10.4 °F 29% 30.09 in 10.0 mi NNW 28.8 mph 42.6 mph N/A   Clear
11:54 AM 41.0 °F 30.9 °F 8.6 °F 26% 30.09 in 10.0 mi NNW 24.2 mph 36.8 mph N/A   Clear
12:15 PM 41.0 °F 29.3 °F 8.6 °F 26% 30.09 in 10.0 mi NW 33.4 mph 43.7 mph N/A   Clear
12:35 PM 42.8 °F 32.5 °F 12.2 °F 29% 30.10 in 10.0 mi NNW 28.8 mph 40.3 mph N/A   Clear
12:54 PM 42.8 °F 33.1 °F 12.2 °F 29% 30.10 in 10.0 mi NNW 25.3 mph 40.3 mph N/A   Clear
1:15 PM 44.6 °F 35.1 °F 6.8 °F 21% 30.10 in 10.0 mi NNW 27.6 mph 39.1 mph N/A   Clear
1:34 PM 44.6 °F 35.1 °F 5.0 °F 20% 30.11 in 10.0 mi NW 27.6 mph 41.4 mph N/A   Clear
1:55 PM 44.6 °F 34.7 °F 5.0 °F 20% 30.11 in 10.0 mi NW 29.9 mph 36.8 mph N/A   Clear
2:15 PM 44.6 °F 34.4 °F 1.4 °F 17% 30.11 in 10.0 mi NW 32.2 mph 40.3 mph N/A   Clear
2:35 PM 44.6 °F 36.1 °F 1.4 °F 17% 30.10 in 10.0 mi NW 21.9 mph 40.3 mph N/A   Clear
2:55 PM 44.6 °F 37.4 °F 1.4 °F 17% 30.10 in 10.0 mi North 16.1 mph 33.4 mph N/A   Clear
3:15 PM 46.4 °F 37.5 °F 3.2 °F 17% 30.10 in 10.0 mi NNW 27.6 mph 32.2 mph N/A   Clear
3:35 PM 46.4 °F 39.0 °F 3.2 °F 17% 30.10 in 10.0 mi NNW 19.6 mph 36.8 mph N/A   Clear
3:55 PM 44.6 °F 35.9 °F 3.2 °F 18% 30.10 in 10.0 mi NNW 23.0 mph 32.2 mph N/A   Clear
4:15 PM 46.4 °F 38.7 °F 5.0 °F 18% 30.11 in 10.0 mi NNW 20.7 mph 31.1 mph N/A   Clear
4:35 PM 46.4 °F 38.1 °F 3.2 °F 17% 30.12 in 10.0 mi NNW 24.2 mph 32.2 mph N/A   Clear
4:54 PM 46.4 °F 37.9 °F 3.2 °F 17% 30.12 in 10.0 mi NNW 25.3 mph 28.8 mph N/A   Clear
5:14 PM 44.6 °F 36.1 °F 3.2 °F 18% 30.13 in 10.0 mi NNW 21.9 mph 29.9 mph N/A   Clear
5:35 PM 44.6 °F 36.1 °F 3.2 °F 18% 30.14 in 10.0 mi North 21.9 mph 27.6 mph N/A   Clear
5:55 PM 44.6 °F 37.4 °F 5.0 °F 20% 30.15 in 10.0 mi NNW 16.1 mph 25.3 mph N/A   Clear
6:15 PM 44.6 °F 37.2 °F 5.0 °F 20% 30.16 in 10.0 mi NNW 17.3 mph 25.3 mph N/A   Clear
6:35 PM 42.8 °F 35.4 °F 5.0 °F 21% 30.18 in 10.0 mi NNW 15.0 mph 19.6 mph N/A   Clear
6:55 PM 41.0 °F 31.9 °F 3.2 °F 21% 30.19 in 10.0 mi NNW 19.6 mph 24.2 mph N/A   Clear
7:15 PM 39.2 °F 30.8 °F 5.0 °F 24% 30.19 in 10.0 mi NNW 15.0 mph 21.9 mph N/A   Clear
7:35 PM 39.2 °F 32.5 °F 5.0 °F 24% 30.21 in 10.0 mi NNW 10.4 mph 17.3 mph N/A   Clear
7:55 PM 37.4 °F 32.8 °F 6.8 °F 28% 30.22 in 10.0 mi North 5.8 mph - N/A   Clear
8:15 PM 32.0 °F 24.8 °F 5.0 °F 32% 30.23 in 10.0 mi NNE 8.1 mph - N/A   Clear
8:35 PM 32.0 °F 22.5 °F 5.0 °F 32% 30.24 in 10.0 mi North 12.7 mph - N/A   Clear
8:55 PM 35.6 °F 28.0 °F 6.8 °F 30% 30.24 in 10.0 mi NW 10.4 mph - N/A   Clear
9:15 PM 30.2 °F 25.4 °F 5.0 °F 34% 30.27 in 10.0 mi SSE 4.6 mph - N/A   Clear
9:35 PM 32.0 °F 24.8 °F 6.8 °F 35% 30.27 in 10.0 mi West 8.1 mph - N/A   Clear
9:55 PM 32.0 °F 24.2 °F 6.8 °F 35% 30.27 in 10.0 mi NW 9.2 mph - N/A   Clear
10:15 PM 28.4 °F 20.4 °F 5.0 °F 37% 30.27 in 10.0 mi NNW 8.1 mph - N/A   Clear
10:35 PM 28.4 °F 19.7 °F 5.0 °F 37% 30.28 in 10.0 mi North 9.2 mph - N/A   Clear
10:55 PM 28.4 °F 23.3 °F 3.2 °F 34% 30.28 in 10.0 mi NNW 4.6 mph - N/A   Clear
11:15 PM 24.8 °F 16.1 °F 5.0 °F 43% 30.29 in 10.0 mi NNW 8.1 mph - N/A   Clear
11:35 PM 28.4 °F 21.2 °F 6.8 °F 40% 30.29 in 10.0 mi NW 6.9 mph - N/A   Clear
11:55 PM 26.6 °F 15.7 °F 5.0 °F 40% 30.29 in 10.0 mi NNW 12.7 mph - N/A   Clear